Time,TemperatureF,DewpointF,PressureIn,WindDirection,WindDirectionDegrees,WindSpeedMPH,WindSpeedGustMPH,Humidity,HourlyPrecipIn,Conditions,Clouds,dailyrainin,SoftwareType,DateUTC
2013-02-16 00:00:00,41.3,31.5,29.97,South,180,6.0,9.0,68,0.00,,---,0.00,VWS V14.01,2013-02-16 05:00:00,
2013-02-16 00:05:00,41.5,31.4,29.97,South,188,5.0,8.0,67,0.00,,---,0.00,VWS V14.01,2013-02-16 05:05:00,
2013-02-16 00:10:00,41.8,31.7,29.97,SSE,165,5.0,9.0,67,0.00,,---,0.00,VWS V14.01,2013-02-16 05:10:00,
2013-02-16 00:15:00,42.0,31.9,29.97,South,173,6.0,9.0,67,0.00,,---,0.00,VWS V14.01,2013-02-16 05:15:00,
2013-02-16 00:20:00,42.1,32.0,29.97,South,181,8.0,9.0,67,0.00,,---,0.00,VWS V14.01,2013-02-16 05:20:00,
2013-02-16 00:23:00,42.0,31.9,29.97,SSE,162,5.0,9.0,67,0.00,,---,0.00,VWS V14.01,2013-02-16 05:23:00,
2013-02-16 00:28:00,41.9,32.1,29.96,South,171,5.0,9.0,68,0.00,,---,0.00,VWS V14.01,2013-02-16 05:28:00,
2013-02-16 00:33:00,41.8,32.0,29.96,South,182,3.0,9.0,68,0.00,,---,0.00,VWS V14.01,2013-02-16 05:33:00,
2013-02-16 00:38:00,41.8,32.0,29.96,SSW,209,7.0,9.0,68,0.00,,---,0.00,VWS V14.01,2013-02-16 05:38:00,
2013-02-16 00:43:00,41.8,32.0,29.96,South,187,3.0,9.0,68,0.00,,---,0.00,VWS V14.01,2013-02-16 05:43:00,
2013-02-16 00:48:00,41.6,32.2,29.96,South,173,0.0,9.0,69,0.00,,---,0.00,VWS V14.01,2013-02-16 05:48:00,
2013-02-16 00:53:00,40.9,32.2,29.96,SSW,202,5.0,9.0,71,0.00,,---,0.00,VWS V14.01,2013-02-16 05:53:00,
2013-02-16 00:58:00,40.3,32.0,29.96,SSW,204,0.0,9.0,72,0.00,,---,0.00,VWS V14.01,2013-02-16 05:58:00,
2013-02-16 01:03:00,40.1,31.5,29.96,SSW,204,0.0,0.0,71,0.00,,---,0.00,VWS V14.01,2013-02-16 06:03:00,
2013-02-16 01:08:00,40.0,31.4,29.97,SSW,204,0.0,0.0,71,0.00,,---,0.00,VWS V14.01,2013-02-16 06:08:00,
2013-02-16 01:13:00,39.8,31.2,29.96,SSW,203,0.0,0.0,71,0.00,,---,0.00,VWS V14.01,2013-02-16 06:13:00,
2013-02-16 01:18:00,39.4,31.1,29.96,SSW,203,0.0,0.0,72,0.00,,---,0.00,VWS V14.01,2013-02-16 06:18:00,
2013-02-16 01:23:00,38.8,30.9,29.96,SSW,203,0.0,0.0,73,0.00,,---,0.00,VWS V14.01,2013-02-16 06:23:00,
2013-02-16 01:28:00,38.3,30.8,29.96,SSW,203,0.0,0.0,74,0.00,,---,0.00,VWS V14.01,2013-02-16 06:28:00,
2013-02-16 01:33:00,37.9,30.0,29.96,SSW,204,0.0,0.0,73,0.00,,---,0.00,VWS V14.01,2013-02-16 06:33:00,
2013-02-16 01:38:00,37.6,29.7,29.97,SSW,203,0.0,0.0,73,0.00,,---,0.00,VWS V14.01,2013-02-16 06:38:00,
2013-02-16 01:43:00,37.3,29.1,29.97,SSW,204,0.0,0.0,72,0.00,,---,0.00,VWS V14.01,2013-02-16 06:43:00,
2013-02-16 01:48:00,37.2,29.0,29.96,WNW,303,0.0,0.0,72,0.00,,---,0.00,VWS V14.01,2013-02-16 06:48:00,
2013-02-16 01:53:00,36.9,28.7,29.96,WNW,303,0.0,0.0,72,0.00,,---,0.00,VWS V14.01,2013-02-16 06:53:00,
2013-02-16 01:58:00,36.6,28.4,29.96,WNW,303,0.0,0.0,72,0.00,,---,0.00,VWS V14.01,2013-02-16 06:58:00,
2013-02-16 02:03:00,36.6,28.1,29.96,WNW,303,0.0,0.0,71,0.00,,---,0.00,VWS V14.01,2013-02-16 07:03:00,
2013-02-16 02:08:00,36.8,28.0,29.95,WNW,303,0.0,0.0,70,0.00,,---,0.00,VWS V14.01,2013-02-16 07:08:00,
2013-02-16 02:13:00,36.8,27.6,29.95,WNW,303,0.0,0.0,69,0.00,,---,0.00,VWS V14.01,2013-02-16 07:13:00,
2013-02-16 02:18:00,37.2,27.6,29.95,WNW,303,0.0,0.0,68,0.00,,---,0.00,VWS V14.01,2013-02-16 07:18:00,
2013-02-16 02:23:00,37.4,27.5,29.94,WNW,303,0.0,0.0,67,0.00,,---,0.00,VWS V14.01,2013-02-16 07:23:00,
2013-02-16 02:28:00,37.3,27.4,29.94,NNW,340,0.0,0.0,67,0.00,,---,0.00,VWS V14.01,2013-02-16 07:28:00,
2013-02-16 02:33:00,37.0,27.4,29.94,North,357,0.0,0.0,68,0.00,,---,0.00,VWS V14.01,2013-02-16 07:33:00,
2013-02-16 02:38:00,36.6,27.0,29.94,NNE,12,0.0,0.0,68,0.00,,---,0.00,VWS V14.01,2013-02-16 07:38:00,
2013-02-16 02:43:00,36.5,27.0,29.93,ENE,70,3.0,6.0,68,0.00,,---,0.00,VWS V14.01,2013-02-16 07:43:00,
2013-02-16 02:48:00,36.2,26.7,29.93,ENE,70,0.0,6.0,68,0.00,,---,0.00,VWS V14.01,2013-02-16 07:48:00,
2013-02-16 02:53:00,36.0,26.5,29.93,ENE,70,0.0,6.0,68,0.00,,---,0.00,VWS V14.01,2013-02-16 07:53:00,
2013-02-16 02:58:00,35.9,26.4,29.93,ENE,70,0.0,6.0,68,0.00,,---,0.00,VWS V14.01,2013-02-16 07:58:00,
2013-02-16 03:03:00,35.8,25.9,29.92,ENE,72,4.0,4.0,67,0.00,,---,0.00,VWS V14.01,2013-02-16 08:03:00,
2013-02-16 03:08:00,35.7,25.8,29.92,ENE,67,0.0,5.0,67,0.00,,---,0.00,VWS V14.01,2013-02-16 08:08:00,
2013-02-16 03:13:00,35.6,25.7,29.92,ENE,72,0.0,5.0,67,0.00,,---,0.00,VWS V14.01,2013-02-16 08:13:00,
2013-02-16 03:18:00,35.5,25.6,29.92,East,89,0.0,5.0,67,0.00,,---,0.00,VWS V14.01,2013-02-16 08:18:00,
2013-02-16 03:23:00,35.6,25.4,29.92,East,89,0.0,5.0,66,0.00,,---,0.00,VWS V14.01,2013-02-16 08:23:00,
2013-02-16 03:28:00,35.9,25.3,29.92,East,89,0.0,5.0,65,0.00,,---,0.00,VWS V14.01,2013-02-16 08:28:00,
2013-02-16 03:33:00,36.0,25.4,29.92,East,89,0.0,0.0,65,0.00,,---,0.00,VWS V14.01,2013-02-16 08:33:00,
2013-02-16 03:38:00,36.2,25.6,29.92,East,89,0.0,0.0,65,0.00,,---,0.00,VWS V14.01,2013-02-16 08:38:00,
2013-02-16 03:43:00,36.3,25.3,29.92,East,89,0.0,0.0,64,0.00,,---,0.00,VWS V14.01,2013-02-16 08:43:00,
2013-02-16 03:48:00,36.5,25.5,29.91,East,89,0.0,0.0,64,0.00,,---,0.00,VWS V14.01,2013-02-16 08:48:00,
2013-02-16 03:53:00,36.6,25.6,29.91,East,89,0.0,0.0,64,0.00,,---,0.00,VWS V14.01,2013-02-16 08:53:00,
2013-02-16 03:58:00,36.7,25.7,29.91,East,89,0.0,0.0,64,0.00,,---,0.00,VWS V14.01,2013-02-16 08:58:00,
2013-02-16 04:03:00,36.9,25.5,29.91,East,89,0.0,0.0,63,0.00,,---,0.00,VWS V14.01,2013-02-16 09:03:00,
2013-02-16 04:08:00,37.0,25.6,29.90,East,89,0.0,0.0,63,0.00,,---,0.00,VWS V14.01,2013-02-16 09:08:00,
2013-02-16 04:13:00,36.9,25.5,29.90,East,89,0.0,0.0,63,0.00,,---,0.00,VWS V14.01,2013-02-16 09:13:00,
2013-02-16 04:18:00,36.7,25.3,29.90,East,89,0.0,0.0,63,0.00,,---,0.00,VWS V14.01,2013-02-16 09:18:00,
2013-02-16 04:23:00,36.6,25.2,29.90,East,89,0.0,0.0,63,0.00,,---,0.00,VWS V14.01,2013-02-16 09:23:00,
2013-02-16 04:28:00,36.6,25.2,29.90,East,89,0.0,0.0,63,0.00,,---,0.00,VWS V14.01,2013-02-16 09:28:00,
2013-02-16 04:33:00,36.4,25.0,29.91,East,89,0.0,0.0,63,0.00,,---,0.00,VWS V14.01,2013-02-16 09:33:00,
2013-02-16 04:38:00,36.3,24.9,29.91,East,89,0.0,0.0,63,0.00,,---,0.00,VWS V14.01,2013-02-16 09:38:00,
2013-02-16 04:43:00,36.1,24.7,29.91,East,89,0.0,0.0,63,0.00,,---,0.00,VWS V14.01,2013-02-16 09:43:00,
2013-02-16 04:48:00,35.9,24.9,29.91,NW,318,0.0,1.0,64,0.00,,---,0.00,VWS V14.01,2013-02-16 09:48:00,
2013-02-16 04:53:00,35.4,24.5,29.91,NW,318,0.0,7.0,64,0.00,,---,0.00,VWS V14.01,2013-02-16 09:53:00,
2013-02-16 04:58:00,34.6,24.1,29.92,NW,317,5.0,8.0,65,0.00,,---,0.00,VWS V14.01,2013-02-16 09:58:00,
2013-02-16 05:02:00,34.4,23.9,29.92,NW,309,1.0,6.0,65,0.00,,---,0.00,VWS V14.01,2013-02-16 10:02:00,
2013-02-16 05:07:00,34.0,23.5,29.92,NNW,344,3.0,6.0,65,0.00,,---,0.00,VWS V14.01,2013-02-16 10:07:00,
2013-02-16 05:12:00,33.9,23.4,29.91,NNW,334,4.0,6.0,65,0.00,,---,0.00,VWS V14.01,2013-02-16 10:12:00,
2013-02-16 05:17:00,34.0,23.1,29.91,NNW,330,1.0,6.0,64,0.01,,---,0.01,VWS V14.01,2013-02-16 10:17:00,
2013-02-16 05:22:00,34.2,23.3,29.90,NNW,330,2.0,6.0,64,0.01,,---,0.01,VWS V14.01,2013-02-16 10:22:00,
2013-02-16 05:27:00,34.4,23.1,29.91,NNW,330,0.0,6.0,63,0.01,,---,0.01,VWS V14.01,2013-02-16 10:27:00,
2013-02-16 05:32:00,34.5,23.2,29.91,NNW,334,3.0,6.0,63,0.01,,---,0.01,VWS V14.01,2013-02-16 10:32:00,
2013-02-16 05:37:00,35.0,23.7,29.91,NNW,334,4.0,6.0,63,0.01,,---,0.01,VWS V14.01,2013-02-16 10:37:00,
2013-02-16 05:42:00,35.2,23.5,29.90,NW,323,3.0,7.0,62,0.01,,---,0.01,VWS V14.01,2013-02-16 10:42:00,
2013-02-16 05:47:00,35.3,23.6,29.90,NW,316,0.0,7.0,62,0.01,,---,0.01,VWS V14.01,2013-02-16 10:47:00,
2013-02-16 05:52:00,35.4,23.7,29.90,NNW,336,0.0,7.0,62,0.01,,---,0.01,VWS V14.01,2013-02-16 10:52:00,
2013-02-16 05:57:00,35.7,24.0,29.91,NW,325,5.0,7.0,62,0.01,,---,0.01,VWS V14.01,2013-02-16 10:57:00,
2013-02-16 06:03:00,35.7,24.0,29.91,NW,317,3.0,7.0,62,0.01,,---,0.01,VWS V14.01,2013-02-16 11:03:00,
2013-02-16 06:08:00,36.2,24.1,29.92,North,352,2.0,7.0,61,0.01,,---,0.01,VWS V14.01,2013-02-16 11:08:00,
2013-02-16 06:13:00,36.2,24.1,29.91,NW,317,5.0,7.0,61,0.01,,---,0.01,VWS V14.01,2013-02-16 11:13:00,
2013-02-16 06:18:00,36.2,24.1,29.92,NW,313,7.0,7.0,61,0.01,,---,0.01,VWS V14.01,2013-02-16 11:18:00,
2013-02-16 06:23:00,36.3,24.1,29.92,NW,307,2.0,10.0,61,0.01,,---,0.01,VWS V14.01,2013-02-16 11:23:00,
2013-02-16 06:28:00,36.3,24.1,29.92,NNW,327,5.0,10.0,61,0.01,,---,0.01,VWS V14.01,2013-02-16 11:28:00,
2013-02-16 06:33:00,36.2,24.1,29.91,NW,312,3.0,11.0,61,0.00,,---,0.01,VWS V14.01,2013-02-16 11:33:00,
2013-02-16 06:38:00,36.1,24.0,29.91,North,353,11.0,13.0,61,0.00,,---,0.01,VWS V14.01,2013-02-16 11:38:00,
2013-02-16 06:43:00,36.0,23.9,29.91,North,353,4.0,13.0,61,0.00,,---,0.01,VWS V14.01,2013-02-16 11:43:00,
2013-02-16 06:48:00,35.9,23.8,29.92,NW,322,4.0,13.0,61,0.00,,---,0.01,VWS V14.01,2013-02-16 11:48:00,
2013-02-16 06:53:00,35.8,23.3,29.92,NNW,337,6.0,13.0,60,0.00,,---,0.01,VWS V14.01,2013-02-16 11:53:00,
2013-02-16 06:58:00,35.7,23.2,29.92,NNW,330,6.0,14.0,60,0.00,,---,0.01,VWS V14.01,2013-02-16 11:58:00,
2013-02-16 07:03:00,35.7,23.2,29.92,NNW,338,8.0,9.0,60,0.00,,---,0.01,VWS V14.01,2013-02-16 12:03:00,
2013-02-16 07:08:00,35.7,23.2,29.93,NNW,327,6.0,9.0,60,0.00,,---,0.01,VWS V14.01,2013-02-16 12:08:00,
2013-02-16 07:13:00,35.6,23.1,29.93,NNW,348,10.0,13.0,60,0.00,,---,0.01,VWS V14.01,2013-02-16 12:13:00,
2013-02-16 07:18:00,35.7,23.2,29.93,NNW,330,10.0,13.0,60,0.00,,---,0.01,VWS V14.01,2013-02-16 12:18:00,
2013-02-16 07:23:00,35.7,23.2,29.93,NNW,334,11.0,13.0,60,0.00,,---,0.01,VWS V14.01,2013-02-16 12:23:00,
2013-02-16 07:28:00,35.7,23.6,29.92,NNW,346,5.0,13.0,61,0.00,,---,0.01,VWS V14.01,2013-02-16 12:28:00,
2013-02-16 07:33:00,35.6,23.5,29.93,NNE,26,0.0,6.0,61,0.00,,---,0.01,VWS V14.01,2013-02-16 12:33:00,
2013-02-16 07:38:00,35.7,23.6,29.93,North,357,8.0,8.0,61,0.00,,---,0.01,VWS V14.01,2013-02-16 12:38:00,
2013-02-16 07:43:00,35.8,23.7,29.92,North,9,0.0,9.0,61,0.00,,---,0.01,VWS V14.01,2013-02-16 12:43:00,
2013-02-16 07:48:00,35.8,24.1,29.92,NNE,17,5.0,9.0,62,0.00,,---,0.01,VWS V14.01,2013-02-16 12:48:00,
2013-02-16 07:53:00,35.8,24.1,29.92,NNE,22,2.0,9.0,62,0.00,,---,0.01,VWS V14.01,2013-02-16 12:53:00,
2013-02-16 07:58:00,35.8,24.5,29.92,NNW,334,3.0,9.0,63,0.00,,---,0.01,VWS V14.01,2013-02-16 12:58:00,
2013-02-16 08:03:00,35.9,24.9,29.92,North,11,2.0,8.0,64,0.00,,---,0.01,VWS V14.01,2013-02-16 13:03:00,
2013-02-16 08:08:00,35.9,25.3,29.93,NNW,348,4.0,8.0,65,0.00,,---,0.01,VWS V14.01,2013-02-16 13:08:00,
2013-02-16 08:13:00,36.0,25.4,29.93,NNW,327,5.0,10.0,65,0.00,,---,0.01,VWS V14.01,2013-02-16 13:13:00,
2013-02-16 08:18:00,36.0,26.1,29.93,NW,323,3.0,10.0,67,0.00,,---,0.01,VWS V14.01,2013-02-16 13:18:00,
2013-02-16 08:23:00,35.9,26.4,29.93,NNW,338,9.0,12.0,68,0.00,,---,0.01,VWS V14.01,2013-02-16 13:23:00,
2013-02-16 08:28:00,35.9,27.1,29.93,NNW,346,4.0,12.0,70,0.00,,---,0.01,VWS V14.01,2013-02-16 13:28:00,
2013-02-16 08:33:00,35.8,27.7,29.94,NNW,328,6.0,10.0,72,0.00,,---,0.01,VWS V14.01,2013-02-16 13:33:00,
2013-02-16 08:38:00,35.6,27.8,29.94,NNW,335,11.0,13.0,73,0.00,,---,0.01,VWS V14.01,2013-02-16 13:38:00,
2013-02-16 08:43:00,35.4,28.3,29.94,North,360,1.0,13.0,75,0.00,,---,0.01,VWS V14.01,2013-02-16 13:43:00,
2013-02-16 08:48:00,35.4,28.6,29.94,NNW,330,5.0,13.0,76,0.00,,---,0.01,VWS V14.01,2013-02-16 13:48:00,
2013-02-16 08:53:00,35.4,28.9,29.94,NNW,344,3.0,13.0,77,0.00,,---,0.01,VWS V14.01,2013-02-16 13:53:00,
2013-02-16 08:58:00,35.4,29.2,29.94,NW,318,5.0,13.0,78,0.00,,---,0.01,VWS V14.01,2013-02-16 13:58:00,
2013-02-16 09:03:00,35.6,29.7,29.93,North,355,7.0,11.0,79,0.00,,---,0.01,VWS V14.01,2013-02-16 14:03:00,
2013-02-16 09:08:00,35.8,30.5,29.93,NNW,329,6.0,12.0,81,0.00,,---,0.01,VWS V14.01,2013-02-16 14:08:00,
2013-02-16 09:13:00,36.1,30.8,29.93,North,3,8.0,12.0,81,0.00,,---,0.01,VWS V14.01,2013-02-16 14:13:00,
2013-02-16 09:18:00,36.4,31.7,29.93,NNE,12,5.0,12.0,83,0.00,,---,0.01,VWS V14.01,2013-02-16 14:18:00,
2013-02-16 09:23:00,36.8,32.1,29.92,North,352,0.0,14.0,83,0.00,,---,0.01,VWS V14.01,2013-02-16 14:23:00,
2013-02-16 09:28:00,37.1,33.0,29.92,North,3,6.0,17.0,85,0.00,,---,0.01,VWS V14.01,2013-02-16 14:28:00,
2013-02-16 09:33:00,37.4,33.3,29.92,NNW,343,3.0,9.0,85,0.00,,---,0.01,VWS V14.01,2013-02-16 14:33:00,
2013-02-16 09:38:00,37.5,33.7,29.92,NNW,340,6.0,13.0,86,0.00,,---,0.01,VWS V14.01,2013-02-16 14:38:00,
2013-02-16 09:43:00,37.7,33.9,29.91,North,359,8.0,13.0,86,0.00,,---,0.01,VWS V14.01,2013-02-16 14:43:00,
2013-02-16 09:48:00,37.9,34.1,29.91,NNE,15,2.0,13.0,86,0.00,,---,0.01,VWS V14.01,2013-02-16 14:48:00,
2013-02-16 09:53:00,38.1,34.3,29.92,North,359,3.0,13.0,86,0.00,,---,0.01,VWS V14.01,2013-02-16 14:53:00,
2013-02-16 09:58:00,38.3,34.5,29.91,North,355,5.0,13.0,86,0.00,,---,0.01,VWS V14.01,2013-02-16 14:58:00,
2013-02-16 10:03:00,38.2,34.4,29.91,North,1,11.0,11.0,86,0.00,,---,0.01,VWS V14.01,2013-02-16 15:03:00,
2013-02-16 10:08:00,38.2,34.4,29.91,North,354,5.0,15.0,86,0.00,,---,0.01,VWS V14.01,2013-02-16 15:08:00,
2013-02-16 10:13:00,38.3,34.5,29.91,NNE,16,6.0,15.0,86,0.00,,---,0.01,VWS V14.01,2013-02-16 15:13:00,
2013-02-16 10:18:00,38.3,34.5,29.91,NNE,12,1.0,15.0,86,0.00,,---,0.01,VWS V14.01,2013-02-16 15:18:00,
2013-02-16 10:23:00,38.3,34.2,29.91,NNE,13,7.0,15.0,85,0.00,,---,0.01,VWS V14.01,2013-02-16 15:23:00,
2013-02-16 10:28:00,38.4,34.3,29.92,NNE,31,5.0,15.0,85,0.00,,---,0.01,VWS V14.01,2013-02-16 15:28:00,
2013-02-16 10:33:00,38.4,34.3,29.91,NNE,17,3.0,7.0,85,0.00,,---,0.01,VWS V14.01,2013-02-16 15:33:00,
2013-02-16 10:38:00,38.5,34.4,29.91,NNE,13,6.0,8.0,85,0.00,,---,0.01,VWS V14.01,2013-02-16 15:38:00,
2013-02-16 10:43:00,38.4,34.3,29.91,North,5,4.0,11.0,85,0.00,,---,0.01,VWS V14.01,2013-02-16 15:43:00,
2013-02-16 10:48:00,38.4,34.3,29.91,NW,313,3.0,12.0,85,0.00,,---,0.01,VWS V14.01,2013-02-16 15:48:00,
2013-02-16 10:53:00,38.4,34.3,29.91,NNW,334,3.0,12.0,85,0.00,,---,0.01,VWS V14.01,2013-02-16 15:53:00,
2013-02-16 10:58:00,38.3,34.2,29.90,North,356,6.0,12.0,85,0.00,,---,0.01,VWS V14.01,2013-02-16 15:58:00,
2013-02-16 11:03:00,38.2,34.1,29.90,NNE,15,6.0,11.0,85,0.00,,---,0.01,VWS V14.01,2013-02-16 16:03:00,
2013-02-16 11:08:00,38.1,34.0,29.91,NNW,343,9.0,11.0,85,0.00,,---,0.01,VWS V14.01,2013-02-16 16:08:00,
2013-02-16 11:13:00,38.0,33.6,29.91,NNW,335,10.0,13.0,84,0.00,,---,0.01,VWS V14.01,2013-02-16 16:13:00,
2013-02-16 11:18:00,37.9,33.5,29.91,NNW,334,8.0,13.0,84,0.00,,---,0.01,VWS V14.01,2013-02-16 16:18:00,
2013-02-16 11:23:00,37.9,33.5,29.90,North,353,4.0,13.0,84,0.00,,---,0.01,VWS V14.01,2013-02-16 16:23:00,
2013-02-16 11:28:00,37.8,33.7,29.90,North,355,9.0,13.0,85,0.00,,---,0.01,VWS V14.01,2013-02-16 16:28:00,
2013-02-16 11:33:00,37.8,33.4,29.90,North,350,8.0,9.0,84,0.00,,---,0.01,VWS V14.01,2013-02-16 16:33:00,
2013-02-16 11:38:00,37.8,33.7,29.90,NNE,18,10.0,11.0,85,0.00,,---,0.01,VWS V14.01,2013-02-16 16:38:00,
2013-02-16 11:43:00,37.7,33.6,29.90,NNW,345,6.0,11.0,85,0.00,,---,0.01,VWS V14.01,2013-02-16 16:43:00,
2013-02-16 11:56:00,37.7,33.6,29.90,WNW,296,5.0,11.0,85,0.00,,---,0.01,VWS V14.01,2013-02-16 16:56:00,
2013-02-16 12:01:00,37.4,33.3,29.89,NNW,332,2.0,5.0,85,0.00,,---,0.01,VWS V14.01,2013-02-16 17:01:00,
2013-02-16 12:06:00,37.3,33.2,29.88,North,357,5.0,8.0,85,0.00,,---,0.01,VWS V14.01,2013-02-16 17:06:00,
2013-02-16 12:11:00,37.2,33.4,29.88,NNW,334,1.0,8.0,86,0.00,,---,0.01,VWS V14.01,2013-02-16 17:11:00,
2013-02-16 12:16:00,37.2,33.4,29.87,North,356,3.0,11.0,86,0.00,,---,0.01,VWS V14.01,2013-02-16 17:16:00,
2013-02-16 12:21:00,37.2,33.4,29.88,NW,320,1.0,11.0,86,0.00,,---,0.01,VWS V14.01,2013-02-16 17:21:00,
2013-02-16 12:26:00,37.2,33.4,29.88,NNW,339,4.0,11.0,86,0.00,,---,0.01,VWS V14.01,2013-02-16 17:26:00,
2013-02-16 12:31:00,37.1,33.3,29.87,NNW,327,0.0,3.0,86,0.00,,---,0.01,VWS V14.01,2013-02-16 17:31:00,
2013-02-16 12:36:00,37.1,33.3,29.87,North,351,3.0,6.0,86,0.00,,---,0.01,VWS V14.01,2013-02-16 17:36:00,
2013-02-16 12:41:00,37.1,33.3,29.87,NNW,344,0.0,6.0,86,0.00,,---,0.01,VWS V14.01,2013-02-16 17:41:00,
2013-02-16 12:46:00,37.1,33.3,29.87,North,4,5.0,6.0,86,0.00,,---,0.01,VWS V14.01,2013-02-16 17:46:00,
2013-02-16 12:51:00,37.1,33.3,29.87,North,359,2.0,6.0,86,0.00,,---,0.01,VWS V14.01,2013-02-16 17:51:00,
2013-02-16 12:56:00,37.1,33.3,29.87,NNW,348,3.0,7.0,86,0.00,,---,0.01,VWS V14.01,2013-02-16 17:56:00,
2013-02-16 13:01:00,37.1,33.3,29.86,NNW,335,4.0,5.0,86,0.00,,---,0.01,VWS V14.01,2013-02-16 18:01:00,
2013-02-16 13:06:00,37.1,33.3,29.86,North,353,5.0,8.0,86,0.00,,---,0.01,VWS V14.01,2013-02-16 18:06:00,
2013-02-16 13:11:00,37.1,33.3,29.86,NW,325,2.0,8.0,86,0.00,,---,0.01,VWS V14.01,2013-02-16 18:11:00,
2013-02-16 13:16:00,37.1,33.3,29.86,WNW,299,7.0,8.0,86,0.00,,---,0.01,VWS V14.01,2013-02-16 18:16:00,
2013-02-16 13:21:00,37.2,33.4,29.85,North,355,4.0,10.0,86,0.00,,---,0.01,VWS V14.01,2013-02-16 18:21:00,
2013-02-16 13:26:00,37.2,33.4,29.86,NNW,339,1.0,10.0,86,0.00,,---,0.01,VWS V14.01,2013-02-16 18:26:00,
2013-02-16 13:31:00,37.2,33.4,29.85,NNW,341,4.0,4.0,86,0.00,,---,0.01,VWS V14.01,2013-02-16 18:31:00,
2013-02-16 13:36:00,37.2,33.4,29.85,NW,325,3.0,6.0,86,0.00,,---,0.01,VWS V14.01,2013-02-16 18:36:00,
2013-02-16 13:41:00,37.1,33.3,29.85,NNW,340,5.0,8.0,86,0.00,,---,0.01,VWS V14.01,2013-02-16 18:41:00,
2013-02-16 13:46:00,37.0,33.2,29.85,NNW,339,5.0,11.0,86,0.00,,---,0.01,VWS V14.01,2013-02-16 18:46:00,
2013-02-16 13:51:00,36.8,33.0,29.85,NNW,338,8.0,11.0,86,0.00,,---,0.01,VWS V14.01,2013-02-16 18:51:00,
2013-02-16 13:56:00,36.8,33.0,29.84,North,353,3.0,11.0,86,0.00,,---,0.01,VWS V14.01,2013-02-16 18:56:00,
2013-02-16 14:01:00,36.7,32.9,29.85,NW,324,5.0,6.0,86,0.00,,---,0.01,VWS V14.01,2013-02-16 19:01:00,
2013-02-16 14:06:00,36.6,32.8,29.85,NNW,329,8.0,12.0,86,0.00,,---,0.01,VWS V14.01,2013-02-16 19:06:00,
2013-02-16 14:11:00,36.5,32.4,29.85,NNW,334,5.0,12.0,85,0.00,,---,0.01,VWS V14.01,2013-02-16 19:11:00,
2013-02-16 14:16:00,36.4,32.3,29.84,NNW,346,6.0,12.0,85,0.00,,---,0.01,VWS V14.01,2013-02-16 19:16:00,
2013-02-16 14:21:00,36.4,32.3,29.84,NNW,336,8.0,12.0,85,0.00,,---,0.01,VWS V14.01,2013-02-16 19:21:00,
2013-02-16 14:26:00,36.2,32.1,29.84,NNW,327,2.0,12.0,85,0.00,,---,0.01,VWS V14.01,2013-02-16 19:26:00,
2013-02-16 14:31:00,36.2,31.8,29.84,NNW,338,8.0,11.0,84,0.00,,---,0.01,VWS V14.01,2013-02-16 19:31:00,
2013-02-16 14:36:00,36.0,31.6,29.84,NW,326,7.0,12.0,84,0.00,,---,0.01,VWS V14.01,2013-02-16 19:36:00,
2013-02-16 14:41:00,35.9,31.5,29.84,NW,325,5.0,12.0,84,0.00,,---,0.01,VWS V14.01,2013-02-16 19:41:00,
2013-02-16 14:46:00,35.8,31.5,29.83,NW,317,5.0,12.0,84,0.00,,---,0.01,VWS V14.01,2013-02-16 19:46:00,
2013-02-16 14:51:00,35.7,31.4,29.84,NNW,328,7.0,12.0,84,0.00,,---,0.01,VWS V14.01,2013-02-16 19:51:00,
2013-02-16 14:56:00,35.6,31.0,29.84,NW,312,4.0,13.0,83,0.00,,---,0.01,VWS V14.01,2013-02-16 19:56:00,
2013-02-16 15:01:00,35.5,30.9,29.83,NNW,347,7.0,11.0,83,0.00,,---,0.01,VWS V14.01,2013-02-16 20:01:00,
2013-02-16 15:06:00,35.3,30.7,29.84,NNW,341,11.0,14.0,83,0.00,,---,0.01,VWS V14.01,2013-02-16 20:06:00,
2013-02-16 15:11:00,35.1,30.5,29.83,NW,306,7.0,15.0,83,0.00,,---,0.01,VWS V14.01,2013-02-16 20:11:00,
2013-02-16 15:16:00,34.8,30.2,29.83,North,1,7.0,15.0,83,0.00,,---,0.01,VWS V14.01,2013-02-16 20:16:00,
2013-02-16 15:21:00,34.4,29.5,29.83,NW,317,8.0,15.0,82,0.00,,---,0.01,VWS V14.01,2013-02-16 20:21:00,
2013-02-16 15:26:00,34.4,29.2,29.83,North,7,9.0,15.0,81,0.00,,---,0.01,VWS V14.01,2013-02-16 20:26:00,
2013-02-16 15:31:00,34.2,28.7,29.83,NW,324,5.0,9.0,80,0.00,,---,0.01,VWS V14.01,2013-02-16 20:31:00,
2013-02-16 15:36:00,34.0,28.5,29.83,NNW,328,6.0,9.0,80,0.01,,---,0.02,VWS V14.01,2013-02-16 20:36:00,
2013-02-16 15:41:00,33.8,27.7,29.83,NNW,340,5.0,13.0,78,0.01,,---,0.02,VWS V14.01,2013-02-16 20:41:00,
2013-02-16 15:46:00,33.8,27.7,29.83,NW,323,4.0,13.0,78,0.02,,---,0.03,VWS V14.01,2013-02-16 20:46:00,
2013-02-16 15:51:00,33.7,27.3,29.82,NW,320,10.0,13.0,77,0.02,,---,0.03,VWS V14.01,2013-02-16 20:51:00,
2013-02-16 15:56:00,33.6,26.9,29.82,NNW,345,7.0,13.0,76,0.02,,---,0.03,VWS V14.01,2013-02-16 20:56:00,
2013-02-16 16:01:00,33.5,26.4,29.83,North,1,5.0,5.0,75,0.02,,---,0.03,VWS V14.01,2013-02-16 21:01:00,
2013-02-16 16:06:00,33.5,26.4,29.83,NW,318,10.0,11.0,75,0.02,,---,0.03,VWS V14.01,2013-02-16 21:06:00,
2013-02-16 16:11:00,33.5,26.1,29.83,North,351,4.0,11.0,74,0.02,,---,0.03,VWS V14.01,2013-02-16 21:11:00,
2013-02-16 16:16:00,33.5,26.1,29.83,NNW,328,9.0,11.0,74,0.02,,---,0.03,VWS V14.01,2013-02-16 21:16:00,
2013-02-16 16:21:00,33.5,25.8,29.83,NNW,342,5.0,13.0,73,0.02,,---,0.03,VWS V14.01,2013-02-16 21:21:00,
2013-02-16 16:26:00,33.6,25.5,29.83,NW,315,6.0,13.0,72,0.02,,---,0.03,VWS V14.01,2013-02-16 21:26:00,
2013-02-16 16:31:00,33.6,25.5,29.82,NNW,338,5.0,5.0,72,0.02,,---,0.03,VWS V14.01,2013-02-16 21:31:00,
2013-02-16 16:36:00,33.6,25.5,29.82,NNW,335,4.0,14.0,72,0.02,,---,0.03,VWS V14.01,2013-02-16 21:36:00,
2013-02-16 16:41:00,33.6,25.2,29.82,NNW,342,6.0,14.0,71,0.02,,---,0.03,VWS V14.01,2013-02-16 21:41:00,
2013-02-16 16:46:00,33.6,25.2,29.82,NNW,336,7.0,14.0,71,0.03,,---,0.04,VWS V14.01,2013-02-16 21:46:00,
2013-02-16 16:51:00,33.7,25.3,29.82,NW,323,3.0,14.0,71,0.03,,---,0.04,VWS V14.01,2013-02-16 21:51:00,
2013-02-16 16:56:00,33.7,25.0,29.81,NW,320,4.0,14.0,70,0.03,,---,0.04,VWS V14.01,2013-02-16 21:56:00,
2013-02-16 17:01:00,33.7,25.0,29.82,NNW,341,6.0,8.0,70,0.01,,---,0.04,VWS V14.01,2013-02-16 22:01:00,
2013-02-16 17:06:00,33.7,25.0,29.82,NNW,332,7.0,11.0,70,0.02,,---,0.05,VWS V14.01,2013-02-16 22:06:00,
2013-02-16 17:11:00,33.7,25.0,29.81,NNW,338,6.0,11.0,70,0.02,,---,0.05,VWS V14.01,2013-02-16 22:11:00,
2013-02-16 17:16:00,33.8,25.1,29.81,NNW,343,6.0,11.0,70,0.02,,---,0.05,VWS V14.01,2013-02-16 22:16:00,
2013-02-16 17:21:00,33.8,25.1,29.82,NNW,335,4.0,11.0,70,0.02,,---,0.05,VWS V14.01,2013-02-16 22:21:00,
2013-02-16 17:26:00,33.8,24.7,29.81,North,3,6.0,11.0,69,0.03,,---,0.06,VWS V14.01,2013-02-16 22:26:00,
2013-02-16 17:31:00,33.8,24.7,29.81,NNW,338,7.0,7.0,69,0.03,,---,0.06,VWS V14.01,2013-02-16 22:31:00,
2013-02-16 17:36:00,33.8,24.7,29.81,NNW,330,9.0,12.0,69,0.03,,---,0.06,VWS V14.01,2013-02-16 22:36:00,
2013-02-16 17:41:00,33.8,24.7,29.82,NW,323,9.0,13.0,69,0.03,,---,0.06,VWS V14.01,2013-02-16 22:41:00,
2013-02-16 17:46:00,33.8,24.7,29.82,NW,321,5.0,13.0,69,0.03,,---,0.06,VWS V14.01,2013-02-16 22:46:00,
2013-02-16 17:51:00,33.8,24.7,29.82,NNW,334,6.0,13.0,69,0.03,,---,0.06,VWS V14.01,2013-02-16 22:51:00,
2013-02-16 17:56:00,33.8,24.7,29.82,North,350,5.0,13.0,69,0.03,,---,0.06,VWS V14.01,2013-02-16 22:56:00,
2013-02-16 18:01:00,33.8,24.7,29.82,NNW,337,6.0,6.0,69,0.02,,---,0.06,VWS V14.01,2013-02-16 23:01:00,
2013-02-16 18:06:00,33.8,24.7,29.82,NW,311,5.0,11.0,69,0.03,,---,0.07,VWS V14.01,2013-02-16 23:06:00,
2013-02-16 18:11:00,33.8,24.7,29.82,NNW,334,8.0,11.0,69,0.03,,---,0.07,VWS V14.01,2013-02-16 23:11:00,
2013-02-16 18:16:00,33.8,24.7,29.82,NW,320,5.0,11.0,69,0.03,,---,0.07,VWS V14.01,2013-02-16 23:16:00,
2013-02-16 18:21:00,33.8,24.7,29.82,NNW,342,10.0,11.0,69,0.03,,---,0.07,VWS V14.01,2013-02-16 23:21:00,
2013-02-16 18:26:00,33.9,24.8,29.82,NNW,346,7.0,11.0,69,0.03,,---,0.07,VWS V14.01,2013-02-16 23:26:00,
2013-02-16 18:31:00,33.9,24.8,29.82,NNW,337,8.0,8.0,69,0.01,,---,0.07,VWS V14.01,2013-02-16 23:31:00,
2013-02-16 18:36:00,33.9,24.8,29.82,NW,323,6.0,9.0,69,0.01,,---,0.07,VWS V14.01,2013-02-16 23:36:00,
2013-02-16 18:41:00,33.9,24.8,29.81,NNW,345,6.0,11.0,69,0.01,,---,0.07,VWS V14.01,2013-02-16 23:41:00,
2013-02-16 18:46:00,33.8,24.7,29.81,NW,313,4.0,11.0,69,0.01,,---,0.07,VWS V14.01,2013-02-16 23:46:00,
2013-02-16 18:51:00,33.8,24.7,29.81,NNW,340,3.0,11.0,69,0.01,,---,0.07,VWS V14.01,2013-02-16 23:51:00,
2013-02-16 18:56:00,33.8,24.7,29.81,NW,321,5.0,11.0,69,0.01,,---,0.07,VWS V14.01,2013-02-16 23:56:00,
2013-02-16 19:01:00,33.8,24.7,29.81,NNW,337,2.0,3.0,69,0.01,,---,0.07,VWS V14.01,2013-02-17 00:01:00,
2013-02-16 19:06:00,33.8,24.7,29.81,NNW,335,3.0,8.0,69,0.01,,---,0.07,VWS V14.01,2013-02-17 00:06:00,
2013-02-16 19:11:00,33.8,24.7,29.81,NW,326,6.0,8.0,69,0.01,,---,0.07,VWS V14.01,2013-02-17 00:11:00,
2013-02-16 19:16:00,33.8,24.4,29.81,NNW,338,4.0,8.0,68,0.01,,---,0.07,VWS V14.01,2013-02-17 00:16:00,
2013-02-16 19:21:00,33.9,24.5,29.81,NNW,336,3.0,8.0,68,0.01,,---,0.07,VWS V14.01,2013-02-17 00:21:00,
2013-02-16 19:26:00,33.9,24.5,29.80,North,353,2.0,10.0,68,0.01,,---,0.07,VWS V14.01,2013-02-17 00:26:00,
2013-02-16 19:31:00,33.9,24.5,29.79,NNW,338,6.0,6.0,68,0.00,,---,0.07,VWS V14.01,2013-02-17 00:31:00,
2013-02-16 19:36:00,34.0,24.6,29.79,NNW,338,4.0,11.0,68,0.00,,---,0.07,VWS V14.01,2013-02-17 00:36:00,
2013-02-16 19:41:00,34.0,24.2,29.79,NNW,344,9.0,12.0,67,0.01,,---,0.08,VWS V14.01,2013-02-17 00:41:00,
2013-02-16 19:46:00,34.0,24.2,29.79,NW,323,7.0,12.0,67,0.01,,---,0.08,VWS V14.01,2013-02-17 00:46:00,
2013-02-16 19:51:00,34.0,24.2,29.78,NNE,16,5.0,12.0,67,0.01,,---,0.08,VWS V14.01,2013-02-17 00:51:00,
2013-02-16 19:56:00,34.1,24.3,29.78,NNW,342,2.0,12.0,67,0.01,,---,0.08,VWS V14.01,2013-02-17 00:56:00,
2013-02-16 20:01:00,34.1,24.3,29.77,NW,324,10.0,10.0,67,0.01,,---,0.08,VWS V14.01,2013-02-17 01:01:00,
2013-02-16 20:06:00,34.1,24.3,29.77,NNW,346,5.0,10.0,67,0.01,,---,0.08,VWS V14.01,2013-02-17 01:06:00,
2013-02-16 20:11:00,34.1,24.3,29.77,North,3,4.0,13.0,67,0.01,,---,0.08,VWS V14.01,2013-02-17 01:11:00,
2013-02-16 20:16:00,34.1,24.3,29.77,NNW,346,0.0,14.0,67,0.01,,---,0.08,VWS V14.01,2013-02-17 01:16:00,
2013-02-16 20:21:00,34.1,24.3,29.76,North,3,6.0,14.0,67,0.01,,---,0.08,VWS V14.01,2013-02-17 01:21:00,
2013-02-16 20:26:00,34.1,24.3,29.76,NNW,346,10.0,15.0,67,0.01,,---,0.08,VWS V14.01,2013-02-17 01:26:00,
2013-02-16 20:31:00,34.1,24.3,29.76,North,11,5.0,8.0,67,0.01,,---,0.08,VWS V14.01,2013-02-17 01:31:00,
2013-02-16 20:36:00,34.1,24.7,29.76,NNW,339,3.0,15.0,68,0.02,,---,0.09,VWS V14.01,2013-02-17 01:36:00,
2013-02-16 20:41:00,34.1,24.7,29.77,NNW,337,9.0,15.0,68,0.02,,---,0.09,VWS V14.01,2013-02-17 01:41:00,
2013-02-16 20:46:00,34.1,24.7,29.76,NNW,332,3.0,15.0,68,0.02,,---,0.09,VWS V14.01,2013-02-17 01:46:00,
2013-02-16 20:51:00,34.1,24.7,29.76,NNW,335,6.0,15.0,68,0.02,,---,0.09,VWS V14.01,2013-02-17 01:51:00,
2013-02-16 20:56:00,34.1,24.7,29.76,NNW,347,8.0,15.0,68,0.02,,---,0.09,VWS V14.01,2013-02-17 01:56:00,
2013-02-16 21:01:00,34.1,24.7,29.76,NNW,334,4.0,5.0,68,0.01,,---,0.09,VWS V14.01,2013-02-17 02:01:00,
2013-02-16 21:06:00,34.1,24.7,29.76,NW,319,11.0,15.0,68,0.01,,---,0.09,VWS V14.01,2013-02-17 02:06:00,
2013-02-16 21:11:00,34.1,24.7,29.76,NNW,328,3.0,15.0,68,0.01,,---,0.09,VWS V14.01,2013-02-17 02:11:00,
2013-02-16 21:16:00,34.1,25.0,29.75,North,357,10.0,15.0,69,0.01,,---,0.09,VWS V14.01,2013-02-17 02:16:00,
2013-02-16 21:21:00,34.1,25.0,29.74,NNW,334,7.0,17.0,69,0.01,,---,0.09,VWS V14.01,2013-02-17 02:21:00,
2013-02-16 21:26:00,34.1,25.0,29.74,NNW,343,12.0,17.0,69,0.01,,---,0.09,VWS V14.01,2013-02-17 02:26:00,
2013-02-16 21:31:00,34.1,25.0,29.74,NNW,330,7.0,7.0,69,0.01,,---,0.09,VWS V14.01,2013-02-17 02:31:00,
2013-02-16 21:36:00,34.2,25.1,29.74,NNW,348,9.0,9.0,69,0.01,,---,0.09,VWS V14.01,2013-02-17 02:36:00,
2013-02-16 21:41:00,34.1,25.0,29.75,NW,313,6.0,12.0,69,0.01,,---,0.09,VWS V14.01,2013-02-17 02:41:00,
2013-02-16 21:46:00,34.2,25.1,29.74,NNW,330,8.0,17.0,69,0.01,,---,0.09,VWS V14.01,2013-02-17 02:46:00,
2013-02-16 21:51:00,34.2,25.1,29.74,NNW,341,4.0,17.0,69,0.02,,---,0.10,VWS V14.01,2013-02-17 02:51:00,
2013-02-16 21:56:00,34.2,25.1,29.74,North,352,11.0,17.0,69,0.02,,---,0.10,VWS V14.01,2013-02-17 02:56:00,
2013-02-16 22:01:00,34.1,25.0,29.73,North,3,9.0,11.0,69,0.02,,---,0.11,VWS V14.01,2013-02-17 03:01:00,
2013-02-16 22:06:00,34.1,25.0,29.72,North,9,7.0,14.0,69,0.02,,---,0.11,VWS V14.01,2013-02-17 03:06:00,
2013-02-16 22:11:00,34.1,25.0,29.72,NNW,340,8.0,18.0,69,0.02,,---,0.11,VWS V14.01,2013-02-17 03:11:00,
2013-02-16 22:16:00,34.1,25.0,29.72,NNW,330,11.0,18.0,69,0.02,,---,0.11,VWS V14.01,2013-02-17 03:16:00,
2013-02-16 22:21:00,34.1,25.4,29.71,NNE,15,10.0,18.0,70,0.02,,---,0.11,VWS V14.01,2013-02-17 03:21:00,
2013-02-16 22:26:00,34.1,25.4,29.71,NNW,331,6.0,18.0,70,0.02,,---,0.11,VWS V14.01,2013-02-17 03:26:00,
2013-02-16 22:31:00,34.1,25.4,29.70,North,355,12.0,12.0,70,0.02,,---,0.11,VWS V14.01,2013-02-17 03:31:00,
2013-02-16 22:36:00,34.1,25.4,29.69,North,358,5.0,17.0,70,0.02,,---,0.11,VWS V14.01,2013-02-17 03:36:00,
2013-02-16 22:41:00,34.1,25.4,29.69,NNW,339,14.0,17.0,70,0.03,,---,0.12,VWS V14.01,2013-02-17 03:41:00,
2013-02-16 22:46:00,34.1,25.4,29.69,NNE,32,6.0,17.0,70,0.03,,---,0.12,VWS V14.01,2013-02-17 03:46:00,
2013-02-16 22:51:00,34.0,25.6,29.68,North,351,9.0,17.0,71,0.03,,---,0.12,VWS V14.01,2013-02-17 03:51:00,
2013-02-16 22:56:00,34.0,25.6,29.68,North,10,4.0,17.0,71,0.03,,---,0.12,VWS V14.01,2013-02-17 03:56:00,
2013-02-16 23:01:00,34.0,25.6,29.68,NW,312,10.0,10.0,71,0.01,,---,0.12,VWS V14.01,2013-02-17 04:01:00,
2013-02-16 23:06:00,33.9,25.5,29.67,NNW,340,3.0,16.0,71,0.01,,---,0.12,VWS V14.01,2013-02-17 04:06:00,
2013-02-16 23:11:00,33.9,25.8,29.67,NNW,345,6.0,19.0,72,0.01,,---,0.12,VWS V14.01,2013-02-17 04:11:00,
2013-02-16 23:16:00,34.0,25.9,29.67,NNW,336,6.0,19.0,72,0.01,,---,0.12,VWS V14.01,2013-02-17 04:16:00,
2013-02-16 23:21:00,34.0,25.9,29.66,NNE,30,7.0,19.0,72,0.01,,---,0.12,VWS V14.01,2013-02-17 04:21:00,
2013-02-16 23:26:00,34.0,26.3,29.66,NNW,327,10.0,22.0,73,0.01,,---,0.12,VWS V14.01,2013-02-17 04:26:00,
2013-02-16 23:31:00,33.9,26.5,29.65,North,11,13.0,22.0,74,0.02,,---,0.13,VWS V14.01,2013-02-17 04:31:00,
2013-02-16 23:36:00,33.9,26.8,29.65,NNE,29,7.0,18.0,75,0.02,,---,0.13,VWS V14.01,2013-02-17 04:36:00,
2013-02-16 23:41:00,33.8,26.7,29.66,NW,307,7.0,18.0,75,0.02,,---,0.13,VWS V14.01,2013-02-17 04:41:00,
2013-02-16 23:46:00,33.8,27.0,29.66,NW,326,9.0,18.0,76,0.02,,---,0.13,VWS V14.01,2013-02-17 04:46:00,
2013-02-16 23:53:00,33.8,27.0,29.66,North,7,4.0,18.0,76,0.02,,---,0.13,VWS V14.01,2013-02-17 04:53:00,
2013-02-16 23:58:00,33.7,27.3,29.65,NW,325,4.0,18.0,77,0.02,,---,0.13,VWS V14.01,2013-02-17 04:58:00,